Wind_Speed
33 32 31 30 30 29 28 27 26 25 24 23 23 22 22 21 20 19 18 17 16 15 14 13 12 11 10 9 9 8 8 8 9 9 10 10 11 12 12 13 13 13 13 13 12 12 12 11 11 12 12 12 12 13 14 14 14 15 16 16 16 16 15 15 16 17 16 13 10 8 7 7 7 7 8 8 8 8 10 11 10 10 10 10 10 9 8 7
34 33 33 32 31 30 29 28 27 26 25 25 24 23 23 22 21 20 19 18 17 16 15 14 13 12 11 10 10 9 9 9 9 10 10 11 11 12 12 13 13 13 13 13 13 13 13 13 13 13 14 14 15 15 15 16 16 17 17 17 17 17 16 16 17 17 15 13 11 9 8 8 8 8 9 9 9 9 10 11 11 11 12 11 11 10 8 7
35 35 34 33 32 31 30 29 28 27 26 26 25 25 24 23 22 21 20 19 18 17 16 15 15 14 13 12 11 11 11 11 11 11 12 12 13 13 13 13 14 14 14 14 14 14 14 15 15 15 16 16 16 17 17 17 18 18 18 18 18 18 18 18 17 16 14 12 11 10 10 10 9 9 10 10 10 10 10 11 11 12 13 12 12 11 9 9
36 36 35 35 34 33 32 30 30 29 28 27 27 26 25 24 23 22 21 20 20 19 18 17 17 16 15 14 13 13 13 13 13 13 14 14 15 15 15 15 15 16 16 16 16 16 16 17 17 17 18 18 18 18 18 19 19 19 19 19 19 19 19 18 17 15 13 12 11 12 12 11 10 11 11 12 12 11 12 11 10 12 12 12 12 12 11 11
38 37 36 36 35 34 33 32 31 31 30 29 28 27 26 26 25 24 23 22 22 21 20 19 18 18 17 16 15 15 14 14 14 14 15 16 16 17 17 17 17 18 18 18 18 18 18 18 19 19 19 19 19 19 19 19 19 20 19 20 20 19 19 18 16 15 14 12 12 13 13 13 12 13 13 14 14 13 13 12 11 11 11 11 12 12 12 12
39 38 38 37 37 36 35 34 34 33 31 30 29 29 28 27 26 26 25 24 23 22 21 21 20 19 19 18 17 16 15 15 14 14 15 16 17 18 19 19 19 20 20 20 20 20 20 20 20 20 20 20 19 19 19 20 20 20 20 20 19 18 18 17 16 16 15 14 14 14 14 14 14 14 16 16 15 15 14 12 11 11 11 11 12 12 13 13
39 39 39 38 38 38 37 36 35 34 33 32 31 30 30 29 28 27 27 26 25 24 23 22 22 21 21 20 19 18 17 15 15 15 15 16 17 18 19 20 21 21 21 21 21 21 21 21 20 20 20 20 19 20 20 20 20 20 20 19 18 18 17 17 17 17 17 16 15 16 16 16 15 16 17 17 17 16 15 13 12 12 11 12 12 12 13 14
40 40 40 39 39 39 39 38 37 36 35 34 33 32 32 31 30 29 28 28 27 26 25 24 24 23 23 22 21 20 18 17 17 16 16 16 17 18 19 20 21 22 22 22 22 22 21 21 21 21 20 20 20 21 21 21 20 20 20 20 19 19 18 18 19 19 19 18 18 18 18 18 17 18 19 18 18 17 16 15 14 13 13 12 13 13 14 14
41 41 40 40 40 40 40 40 39 38 37 36 35 34 33 33 32 31 30 30 29 28 27 26 26 25 25 24 23 22 20 19 18 17 17 17 18 19 20 21 21 22 22 22 22 22 22 22 22 21 21 21 21 22 22 22 21 21 21 21 22 22 21 21 21 22 21 21 20 20 20 19 19 19 18 19 18 16 16 16 15 14 14 14 14 14 14 14
43 42 42 41 41 41 41 41 40 39 38 37 37 36 35 35 34 33 32 32 31 30 29 29 28 27 27 26 25 24 22 21 20 19 19 19 19 19 20 21 22 22 23 23 23 23 23 23 23 23 22 23 23 23 23 23 22 23 23 23 24 24 23 23 23 23 23 22 21 21 20 20 20 19 18 19 18 16 16 16 16 16 15 15 16 16 15 15
44 44 43 43 43 43 43 42 42 41 40 39 38 38 37 36 36 35 34 33 33 32 31 30 30 29 29 28 27 26 24 23 22 21 21 20 20 20 21 22 23 23 24 24 24 24 24 24 24 24 24 24 25 25 25 24 24 24 24 25 24 24 24 24 24 24 23 22 21 21 21 21 21 20 19 19 18 16 17 17 17 17 17 17 18 18 17 17
46 45 45 44 44 44 44 44 43 43 42 41 40 39 38 38 37 37 36 35 35 34 33 32 32 31 30 30 29 28 27 25 24 23 23 22 22 22 22 23 24 24 24 25 25 25 25 25 25 25 25 26 26 26 25 25 25 25 25 25 24 24 24 24 24 24 23 21 21 23 22 22 21 20 20 19 18 17 17 18 18 18 18 19 20 20 19 19
47 47 46 46 45 45 45 45 44 44 43 42 42 41 40 40 39 39 38 37 37 36 35 35 34 33 32 31 31 30 29 27 26 25 25 24 24 23 23 24 25 25 26 26 26 26 26 26 26 27 27 27 27 27 26 25 26 26 26 26 25 25 25 24 24 24 23 23 23 25 24 23 21 19 20 20 18 18 18 18 19 19 19 20 21 21 20 20
49 48 48 47 47 47 46 46 46 45 44 44 43 43 42 41 41 40 40 39 39 38 37 37 36 35 34 33 32 32 31 30 29 28 27 26 25 25 25 26 27 27 27 27 27 27 27 28 28 28 28 28 28 28 27 26 26 27 27 27 25 26 27 24 24 25 24 25 25 26 25 24 20 18 21 21 19 19 19 19 19 19 20 21 22 22 22 22
50 50 50 49 49 49 48 48 47 47 46 45 45 44 44 43 43 42 42 41 41 40 39 39 38 38 37 35 34 34 33 32 31 30 29 28 27 27 27 28 28 28 29 29 29 29 29 29 29 29 29 29 29 28 28 27 27 28 28 28 26 28 29 25 24 26 26 26 27 27 26 25 21 19 22 22 21 22 20 20 19 20 21 22 23 23 23 23
52 52 51 51 51 50 50 49 49 48 48 47 46 46 45 45 44 44 43 43 42 42 41 41 41 40 39 37 36 35 35 34 33 33 32 30 30 30 29 30 30 30 30 30 30 30 30 31 31 31 30 30 29 29 29 28 28 29 29 30 28 27 28 26 25 27 28 27 27 28 27 26 24 21 23 23 23 23 22 21 21 21 22 23 24 24 24 24
53 53 52 52 52 52 51 51 51 50 49 49 48 47 47 46 46 46 45 45 44 44 44 43 42 42 41 39 37 37 37 37 36 35 34 33 32 32 32 32 32 32 32 32 32 32 32 32 32 32 30 30 30 30 30 29 30 32 31 30 28 27 27 28 28 27 28 29 29 29 28 27 26 23 24 25 25 25 24 23 22 23 23 24 25 25 25 24
53 53 53 53 53 53 53 52 52 51 51 50 50 49 49 48 48 48 47 47 46 46 46 45 44 44 43 41 40 39 39 39 38 37 36 35 35 34 34 34 34 34 33 34 33 33 34 34 34 33 31 30 30 30 31 32 33 34 31 29 29 29 28 29 30 28 28 31 30 30 29 28 28 26 25 26 26 26 26 25 24 24 25 25 26 25 25 25
54 54 53 53 53 53 53 53 53 53 52 52 51 51 51 50 50 50 49 49 48 48 47 46 45 46 45 43 42 41 41 41 40 39 39 38 37 36 36 35 35 35 35 35 35 35 36 36 36 33 30 30 31 32 34 35 35 34 33 31 29 30 29 30 31 29 30 33 32 31 30 29 30 29 27 28 28 28 27 26 26 26 26 26 27 26 25 25
57 56 55 54 54 54 54 54 54 53 53 53 53 52 52 52 52 52 51 51 50 49 49 48 48 47 47 45 44 43 42 42 42 42 41 40 39 38 37 37 37 37 37 37 37 37 38 39 36 32 31 32 33 33 36 36 35 34 34 32 31 30 30 31 31 30 33 35 33 32 32 30 30 31 30 29 29 30 29 28 28 27 27 28 28 27 26 25
58 58 57 56 56 55 55 54 54 54 54 54 54 54 54 54 53 54 53 52 52 51 51 50 49 49 48 47 46 45 44 44 44 44 43 41 41 40 39 39 39 39 38 39 39 39 40 41 35 31 33 35 34 35 37 36 36 35 34 33 32 31 31 33 33 32 35 37 34 33 34 31 30 31 32 31 29 30 30 29 29 29 29 29 29 29 27 26
59 59 58 58 57 57 56 56 55 55 55 55 55 55 55 55 55 55 54 54 54 52 52 52 51 50 50 49 48 47 47 47 46 45 44 43 43 42 41 41 41 41 41 41 41 41 42 42 36 33 36 37 37 37 37 37 37 36 35 34 34 32 33 34 35 35 36 37 36 35 35 32 30 31 32 32 30 30 30 29 30 30 30 31 30 30 28 27
61 60 59 59 58 58 58 57 56 56 56 56 56 56 56 56 56 56 56 56 56 54 54 53 53 53 52 51 50 49 49 49 47 47 45 45 45 44 44 43 43 44 44 42 42 43 44 43 38 37 38 38 38 38 38 38 38 37 36 36 35 34 34 36 38 37 36 38 38 37 37 33 30 31 32 33 31 30 30 30 31 31 32 32 31 31 30 29
62 62 62 60 59 60 59 58 58 57 56 57 57 56 57 57 57 57 57 58 59 57 55 55 55 55 54 53 52 51 51 50 49 48 46 47 47 46 46 44 44 46 44 42 42 43 44 44 40 39 39 39 40 39 39 39 39 37 37 37 36 36 36 37 39 39 37 39 39 38 40 35 30 31 32 32 32 31 31 32 32 32 32 32 31 31 30 30
63 63 63 62 62 62 61 61 59 58 57 56 56 56 57 58 57 58 58 60 62 60 57 57 57 57 55 54 53 53 52 51 51 49 47 48 48 46 46 45 45 45 42 41 42 43 44 43 39 38 39 40 40 40 39 39 39 38 38 37 36 37 39 39 39 39 39 40 39 38 41 39 33 33 32 30 32 33 32 32 32 32 32 31 31 31 31 31
66 65 64 63 63 63 64 63 61 59 58 57 57 57 58 57 57 58 57 60 64 63 58 57 57 57 56 55 54 53 54 54 52 50 49 49 47 46 46 45 44 44 42 41 42 43 43 42 39 38 39 40 41 41 38 37 38 40 40 37 37 38 40 40 39 39 40 42 41 39 41 42 38 34 31 30 33 35 33 33 33 32 32 31 31 31 31 31
69 68 67 65 64 64 64 63 62 61 59 58 58 58 58 57 58 58 56 60 67 66 61 58 58 59 58 55 54 53 56 55 50 48 48 46 45 44 45 44 43 43 42 42 43 44 43 41 40 39 39 40 40 39 37 35 38 42 41 38 38 39 39 40 40 40 41 43 44 42 41 45 43 35 31 32 35 36 34 34 34 33 33 32 32 31 31 32
70 69 69 68 67 66 65 65 63 62 60 59 59 60 59 59 60 59 56 61 67 66 63 61 59 60 59 57 56 55 57 55 49 47 46 44 44 43 44 44 43 42 42 43 44 44 42 40 39 38 38 39 37 36 36 36 40 43 41 39 39 39 40 40 41 42 43 45 47 44 40 45 46 38 33 35 37 36 35 35 35 34 34 33 32 31 31 32
69 70 70 69 69 67 67 67 66 64 63 61 61 61 60 61 61 59 59 64 66 63 62 61 58 59 59 58 57 55 55 54 50 48 45 44 45 45 44 44 43 42 41 42 43 43 41 38 36 36 37 37 36 35 36 37 40 42 41 40 40 40 41 41 43 44 46 49 49 45 41 43 46 43 38 35 36 36 36 37 36 34 34 33 32 32 32 32
64 66 68 70 70 69 69 68 67 66 65 64 63 62 61 62 61 59 63 66 63 61 62 61 58 57 57 57 56 54 53 52 50 49 47 45 45 45 45 44 44 43 41 41 42 42 41 38 36 37 37 37 36 36 37 39 40 41 41 41 41 42 42 44 46 46 49 52 50 44 42 42 46 47 42 35 35 37 38 37 36 35 34 32 32 32 32 32
63 62 64 65 67 69 70 69 68 67 66 65 64 64 64 63 61 63 66 64 61 61 63 63 60 57 56 55 55 53 52 51 50 48 47 45 43 44 44 43 43 43 42 41 41 40 40 39 38 38 38 38 39 39 39 40 40 41 42 42 42 44 45 46 48 49 51 52 49 45 43 43 46 47 44 37 34 36 38 36 34 35 35 33 33 32 32 32
63 63 63 62 62 64 66 67 68 69 69 68 67 67 67 65 66 69 68 63 62 64 64 64 62 60 58 56 55 54 52 51 49 48 47 44 43 43 42 42 41 42 43 43 41 41 41 41 41 40 40 40 40 40 40 40 40 41 42 43 43 45 47 49 49 50 50 50 50 47 45 45 47 45 44 40 35 34 36 35 34 34 34 34 34 33 33 33
64 65 64 64 63 62 62 63 65 67 69 70 71 71 70 71 72 71 67 65 68 68 66 66 65 62 61 57 55 54 52 51 49 47 46 44 44 43 42 42 42 41 43 43 42 42 43 43 42 42 41 40 40 41 41 41 41 42 43 44 44 45 48 50 49 49 49 48 48 48 47 48 48 44 41 40 37 33 33 34 35 35 35 35 34 33 34 34
64 66 64 64 64 63 63 63 64 65 67 70 73 74 75 76 71 66 65 67 69 68 67 68 68 66 63 60 56 54 52 50 48 46 46 45 46 45 43 43 42 41 42 44 44 43 44 44 42 41 41 40 41 41 43 44 43 44 44 46 47 46 47 48 48 49 50 49 49 49 49 49 48 44 40 38 38 34 32 32 34 35 36 35 34 34 35 35
58 61 61 63 64 62 63 64 65 67 69 71 73 76 78 75 66 62 65 68 68 67 65 65 67 66 64 62 59 55 52 50 48 47 47 46 46 45 44 43 42 41 42 44 44 43 43 44 43 41 42 43 43 43 45 46 46 46 46 48 49 45 43 46 48 49 50 51 51 51 50 48 46 44 41 39 37 35 33 32 33 35 35 35 35 35 35 35
59 59 58 58 58 58 61 64 65 68 72 75 78 79 76 67 62 62 65 66 66 65 63 62 63 64 63 61 58 55 53 51 50 48 48 48 48 47 46 45 43 43 43 43 44 44 45 46 45 43 43 44 45 45 47 48 48 49 48 48 47 43 43 47 49 49 51 53 53 52 49 46 44 43 41 38 35 34 34 35 34 35 36 36 36 36 36 36
65 63 60 57 53 54 57 60 62 65 72 79 84 80 71 63 61 63 64 65 65 64 63 64 64 64 63 61 58 56 53 52 50 49 49 50 50 48 48 47 44 43 42 42 44 46 46 48 48 45 45 46 46 47 49 50 50 50 49 48 46 45 46 48 50 51 52 54 53 51 49 45 43 43 40 36 35 34 35 37 38 37 37 37 37 37 37 37
63 65 66 61 57 56 56 58 61 64 70 81 87 79 69 63 63 64 67 67 66 66 66 65 65 65 65 63 61 58 56 53 50 49 49 49 50 49 48 46 43 42 41 41 44 47 47 48 50 48 48 48 48 49 51 51 50 49 50 49 47 47 48 48 49 51 52 53 52 50 50 47 44 44 40 36 36 37 37 38 39 39 39 38 38 39 39 39
61 64 65 61 58 58 57 58 62 66 72 82 84 75 66 63 62 65 69 69 68 68 68 66 65 67 66 64 63 61 58 56 52 51 51 50 49 49 47 45 44 43 42 43 45 47 46 48 51 51 49 49 50 52 52 50 48 49 50 50 49 48 48 48 49 50 49 52 51 50 51 49 45 43 40 37 37 39 40 39 40 41 41 41 41 41 42 42
62 62 63 61 59 59 57 57 62 68 75 78 74 66 62 63 65 66 68 68 67 67 67 65 65 67 66 64 64 63 61 59 57 54 54 53 52 52 51 49 47 45 44 44 45 47 48 49 50 51 51 52 53 53 51 49 50 50 51 52 51 49 47 48 51 50 48 50 50 51 51 49 46 43 40 38 39 40 40 41 42 43 43 43 43 44 44 45
59 58 59 61 60 59 59 60 63 68 74 74 67 62 63 64 66 66 66 67 67 67 66 65 66 66 66 65 66 66 64 62 61 58 57 56 55 54 52 50 48 47 47 47 48 50 51 50 50 52 53 53 54 53 51 52 53 53 53 54 54 51 48 50 52 50 48 49 49 51 52 49 48 46 42 39 39 40 40 42 44 45 45 45 46 47 48 48
56 55 54 57 59 60 61 62 62 67 73 69 61 61 66 66 66 65 64 64 65 65 64 64 63 62 63 64 65 67 66 65 64 62 59 57 56 54 52 51 51 51 50 50 50 51 52 53 53 54 54 53 54 54 54 55 55 56 56 56 55 52 50 51 53 52 50 49 48 50 53 51 48 47 44 42 41 41 42 44 45 46 47 48 49 51 51 51
60 56 53 53 55 56 58 58 59 65 69 62 56 62 68 68 68 67 65 64 63 62 63 62 60 59 59 61 63 65 66 65 65 63 61 59 58 56 55 55 55 54 54 53 52 53 55 56 54 54 54 55 56 56 57 57 58 58 56 52 50 50 48 49 51 52 52 51 48 50 54 53 49 47 46 45 44 44 44 46 47 48 49 51 53 53 53 53
65 60 57 56 56 56 58 60 60 61 62 58 58 64 65 66 70 70 69 68 67 67 68 66 63 60 60 60 61 62 63 64 63 62 61 61 60 59 58 58 58 57 56 54 54 55 57 56 53 53 56 59 59 58 58 57 56 55 51 48 48 48 47 49 50 50 51 51 49 52 55 53 50 49 48 47 46 45 46 48 49 51 53 55 56 56 55 55
70 64 59 59 60 61 63 62 60 60 58 55 58 60 59 62 65 66 67 69 70 71 70 68 65 63 62 60 59 59 59 60 61 62 63 62 61 61 60 59 58 58 57 56 56 58 60 60 58 58 61 63 62 59 57 54 52 50 48 47 47 46 45 46 45 48 52 51 50 53 54 50 50 50 49 47 47 47 49 51 52 55 57 59 59 59 58 58
71 68 62 58 61 65 64 61 61 63 61 58 57 57 58 58 57 57 61 65 66 67 67 65 65 65 64 61 59 59 59 60 62 63 63 62 62 61 61 59 59 59 59 59 59 60 61 62 61 62 63 61 58 56 55 53 52 50 48 48 48 46 45 45 47 51 53 52 52 53 51 49 50 50 49 49 50 51 53 54 56 57 59 61 60 60 61 62
70 71 66 60 60 65 67 65 66 67 66 64 61 58 58 58 55 56 58 59 61 64 65 66 66 66 65 63 62 63 62 62 63 63 62 62 63 63 62 62 62 62 61 61 61 62 62 63 62 62 62 59 55 54 55 55 54 52 51 51 51 50 49 50 53 53 51 53 55 52 49 51 51 52 53 54 55 56 57 58 59 60 61 61 62 63 65 66
70 71 69 64 63 65 67 68 69 69 68 67 65 61 59 59 59 60 59 57 58 60 63 67 70 68 65 64 66 67 66 66 66 64 62 62 65 65 65 65 64 63 62 62 63 63 63 64 64 62 60 58 55 55 56 55 54 54 54 54 53 53 53 55 56 53 52 58 58 53 53 56 55 56 58 59 60 60 60 60 61 62 62 62 64 66 69 71
71 71 70 69 67 66 66 67 68 69 70 70 68 65 63 62 62 62 62 62 61 60 61 66 69 68 67 67 69 70 69 68 67 64 62 63 66 67 66 66 65 64 64 64 65 64 62 61 60 60 60 58 55 56 56 55 55 55 56 56 54 53 54 56 56 54 55 60 59 58 60 61 60 61 61 61 62 61 61 63 64 64 65 66 67 69 71 73
72 72 72 71 70 69 67 66 66 67 68 70 70 67 66 66 64 63 64 66 66 65 65 65 64 63 65 66 68 69 68 67 65 64 64 66 69 69 67 68 67 66 66 66 66 65 62 60 58 58 61 59 55 55 55 56 56 55 55 54 53 53 55 57 56 54 56 58 57 59 62 61 62 64 61 61 62 61 63 65 65 66 68 70 72 72 73 74
73 72 72 72 72 70 69 67 67 66 66 68 69 68 67 67 65 64 66 68 68 68 68 66 62 61 62 62 63 65 65 65 65 64 65 70 72 71 71 72 71 70 70 69 69 67 64 63 61 58 60 58 53 53 55 57 58 58 56 53 53 56 59 59 56 55 57 57 56 59 61 60 61 62 60 60 61 62 64 66 67 70 72 74 75 76 76 74
76 73 72 72 73 72 70 68 69 69 66 66 68 69 68 66 64 65 67 68 68 68 68 66 64 64 64 63 61 59 58 60 62 63 66 70 72 73 75 76 75 75 74 72 70 68 65 63 60 58 59 57 52 54 57 58 61 63 58 53 54 59 61 61 58 56 57 57 59 61 60 58 59 60 59 60 60 61 63 65 67 70 72 74 76 75 74 72
Wind_Direction
194 194 195 196 197 199 200 201 201 201 200 199 198 197 196 195 194 194 193 193 192 191 190 190 190 190 191 193 197 202 208 214 217 219 222 222 222 221 220 220 219 219 221 223 225 228 231 236 243 251 259 266 273 278 282 285 288 290 292 293 294 295 296 300 303 304 303 298 290 276 263 254 250 253 259 267 274 280 288 297 303 303 299 295 292 290 289 290
195 196 197 198 200 201 203 203 203 203 202 200 199 199 199 199 198 198 198 197 197 197 196 196 196 196 197 199 202 206 213 218 221 225 228 229 229 228 227 226 226 226 227 229 231 234 239 245 251 258 265 270 275 279 282 285 287 289 290 290 292 293 294 298 300 300 297 290 282 273 265 258 252 252 257 262 268 273 280 289 295 297 294 289 286 284 283 282
197 198 199 200 202 203 205 205 205 205 204 203 202 202 202 202 201 202 202 202 203 204 203 203 203 203 203 205 207 211 216 221 224 228 232 234 235 235 233 233 232 233 234 236 238 241 246 251 257 262 267 271 275 278 282 284 285 287 288 289 290 291 293 295 295 294 288 281 275 271 268 264 261 259 261 264 267 273 278 281 288 290 287 286 285 285 282 277
199 200 201 202 203 205 206 206 207 207 206 205 205 205 205 204 204 205 206 207 208 209 209 209 209 209 209 210 212 215 219 223 226 229 233 235 237 238 239 239 239 239 240 242 245 247 251 256 260 264 269 272 275 278 281 283 284 285 286 287 289 290 291 292 290 286 280 271 267 268 268 269 269 268 268 271 272 275 277 277 279 278 279 281 283 285 284 281
202 203 204 205 205 206 207 208 209 209 209 208 208 208 208 207 207 208 209 210 211 212 213 214 215 215 215 216 218 220 224 227 230 233 235 238 239 241 242 244 244 245 246 248 250 253 256 259 262 266 269 272 275 278 280 282 283 284 285 286 287 288 288 287 284 280 273 266 264 265 267 269 272 273 273 275 276 275 273 272 269 266 268 272 275 279 280 279
205 205 206 207 208 208 209 210 210 211 211 211 211 211 211 211 211 212 213 214 215 216 217 218 219 219 220 222 223 226 229 234 237 239 241 243 244 245 245 246 248 249 250 252 253 256 258 260 263 266 269 272 274 277 279 281 281 282 283 284 284 284 284 282 281 278 272 267 265 264 267 270 272 273 274 274 276 274 271 268 262 259 260 262 265 268 270 272
208 209 209 209 210 210 211 211 212 213 213 213 214 215 215 215 215 215 216 217 219 220 221 222 222 223 225 226 228 231 234 238 242 245 248 249 250 249 249 249 250 251 252 253 255 257 259 261 263 265 268 271 274 277 279 280 280 281 281 280 280 280 280 280 280 278 274 270 267 267 269 270 271 271 271 272 272 272 271 267 261 260 261 260 259 260 262 266
212 212 212 212 212 212 213 213 214 215 215 216 216 217 218 219 219 219 220 221 222 223 225 225 226 227 228 230 232 235 237 241 245 249 252 254 255 254 252 252 252 252 253 254 256 257 259 261 263 265 267 271 275 279 280 280 279 278 278 278 278 277 277 278 278 277 275 272 270 270 271 271 270 269 269 270 269 269 269 266 264 266 267 264 262 261 262 265
214 214 215 215 215 215 215 216 216 217 218 218 219 219 220 222 222 223 223 224 224 226 227 228 229 231 232 234 236 238 240 243 248 252 255 257 258 257 256 254 254 254 254 255 256 257 259 261 263 265 268 273 278 280 281 280 278 277 276 276 277 277 276 275 274 273 272 271 270 271 271 271 270 267 267 269 268 266 265 264 266 269 271 272 270 269 268 268
216 216 217 217 217 217 218 218 219 219 219 220 221 222 223 224 225 226 226 227 227 228 229 230 232 233 235 236 239 241 244 246 251 255 258 259 260 260 258 256 256 255 255 256 256 257 259 261 263 266 270 276 280 281 281 280 278 277 277 276 276 276 276 274 272 270 269 268 269 271 271 270 269 267 267 268 266 264 262 262 266 271 274 276 276 276 276 274
219 218 218 219 219 219 220 220 221 221 222 222 223 224 225 226 227 228 229 229 230 231 231 232 234 235 237 239 241 243 246 248 252 256 259 261 263 263 261 259 257 256 256 257 257 258 259 262 264 268 273 278 281 281 281 280 278 277 277 276 277 276 274 272 270 268 267 268 270 269 268 268 268 268 267 266 265 262 260 259 264 271 275 278 280 280 278 276
221 220 220 220 220 221 221 222 222 223 224 224 225 226 227 228 229 230 231 232 233 233 234 234 235 237 239 241 242 244 247 249 252 256 260 263 265 265 263 261 258 258 257 258 258 259 261 263 266 271 276 279 281 281 279 278 276 276 276 277 276 274 271 269 269 268 268 269 270 269 267 266 266 266 266 265 264 261 259 260 263 269 274 277 279 280 278 276
223 222 222 222 222 222 223 223 224 225 225 226 227 227 228 229 231 232 233 234 235 236 236 237 238 239 240 242 244 246 248 250 252 256 259 262 265 266 264 262 260 259 258 259 259 260 262 265 268 273 277 280 281 280 278 276 275 275 276 276 275 273 269 266 267 269 270 270 269 268 268 266 264 264 266 265 264 263 261 262 265 268 272 275 277 277 276 273
225 225 224 224 224 224 224 225 226 226 227 228 229 230 230 231 232 234 235 236 237 238 238 239 240 241 242 243 245 247 249 251 253 256 259 262 264 265 264 262 260 259 258 258 259 261 264 266 270 274 278 280 280 279 277 275 274 274 274 274 273 271 267 265 267 269 270 271 269 268 267 266 262 261 264 265 266 265 264 265 266 269 271 273 275 275 273 270
227 227 227 226 226 226 226 226 227 228 229 229 230 231 232 233 234 235 236 237 238 240 241 242 243 243 244 245 246 248 250 252 254 256 259 262 264 265 264 262 259 258 258 258 260 262 265 268 272 276 278 279 279 278 276 274 272 273 273 271 268 267 267 266 268 269 269 269 268 267 266 265 262 259 261 263 265 266 266 267 267 269 271 272 274 275 273 270
228 228 228 228 228 228 228 228 228 229 230 231 231 233 234 235 236 237 238 239 240 241 242 243 244 245 246 246 248 250 251 253 255 257 260 263 264 264 264 262 259 258 258 259 260 263 267 270 273 276 277 278 278 277 275 273 272 271 269 268 265 265 268 269 267 268 269 267 266 265 265 264 261 259 261 262 263 265 266 267 268 269 271 273 274 274 273 270
229 229 229 230 230 230 230 230 230 230 231 232 232 234 235 236 237 238 239 240 241 242 243 245 246 247 248 249 250 251 253 255 256 259 261 263 264 264 263 262 260 258 259 260 262 265 268 271 274 276 277 278 278 275 274 272 270 268 266 268 269 268 267 268 266 266 268 267 265 263 263 264 263 260 261 263 263 264 265 265 267 269 271 273 275 275 273 269
230 231 231 231 231 232 232 232 232 232 233 233 234 235 236 237 238 239 240 240 241 242 244 245 247 248 249 249 250 252 254 256 258 261 263 264 264 264 263 262 260 259 259 261 263 266 269 272 274 275 278 279 277 273 271 269 268 269 270 269 270 268 266 267 268 266 266 265 264 262 261 263 265 263 262 264 264 264 264 265 265 268 271 273 275 274 272 268
230 231 232 232 233 233 233 234 234 234 235 235 235 236 237 238 239 240 241 241 242 243 244 245 247 248 249 250 251 252 254 257 259 261 263 264 264 264 264 262 261 261 261 262 265 268 270 271 272 275 279 277 273 270 270 269 270 272 272 269 267 266 266 267 268 268 265 262 261 262 261 262 265 266 265 265 265 264 264 265 265 266 270 272 274 274 272 267
231 231 232 233 233 234 235 235 236 236 236 237 238 238 239 239 240 241 241 242 243 244 245 245 246 248 249 251 252 253 255 257 259 261 262 263 263 263 263 262 262 262 263 264 266 268 269 270 272 277 277 273 270 270 270 271 272 272 271 270 267 265 265 267 267 265 263 261 260 261 261 262 266 268 267 264 264 265 264 263 264 266 269 271 273 273 271 266
231 232 232 233 234 234 235 236 237 237 238 238 239 240 241 241 242 242 243 244 244 245 246 246 247 248 250 251 252 254 255 257 259 261 262 262 263 263 262 263 263 263 264 265 266 267 268 270 274 275 272 271 270 269 271 273 273 273 271 269 266 264 266 267 265 262 261 262 261 260 261 261 264 267 268 265 263 263 263 263 264 266 269 271 272 272 270 265
231 232 233 233 234 235 235 236 237 238 239 240 240 241 242 242 243 244 244 244 245 245 247 248 248 249 251 252 253 254 256 257 259 260 261 262 262 262 263 263 264 265 265 266 267 268 269 271 272 270 269 270 270 271 272 273 273 272 270 267 265 265 266 267 265 262 261 262 262 261 261 261 262 265 267 266 263 262 263 264 264 266 269 271 271 271 269 263
232 232 232 233 234 236 236 236 237 239 240 241 242 243 243 243 244 245 245 245 245 246 247 248 249 250 251 252 253 255 256 257 258 258 260 261 262 263 264 265 265 266 266 266 267 268 269 269 268 267 268 269 270 272 272 272 271 270 268 266 265 266 267 268 266 262 261 262 262 263 262 260 261 263 263 265 264 264 264 264 265 266 268 269 269 268 266 261
232 232 233 233 233 235 236 237 237 238 240 242 243 244 245 245 246 246 247 247 247 246 247 249 250 251 252 253 254 255 255 256 257 258 259 261 262 263 264 265 265 266 267 266 266 267 268 268 267 267 268 269 269 270 270 270 269 268 266 264 266 268 269 267 266 264 262 261 262 265 265 262 260 260 260 263 265 264 264 265 265 266 266 266 266 265 263 257
232 233 233 233 233 234 235 236 237 238 239 241 243 244 245 246 247 247 248 249 248 246 246 248 250 251 252 253 253 254 255 256 257 259 259 261 262 264 264 264 265 266 266 265 265 267 268 268 268 268 268 268 268 267 268 268 267 266 263 264 268 270 269 267 266 266 265 263 261 264 267 265 260 258 258 262 266 264 263 264 265 265 265 264 262 261 258 254
233 233 233 233 234 234 235 236 236 237 238 240 242 243 244 246 247 248 249 250 250 247 246 247 250 252 252 252 254 255 257 257 258 259 260 261 262 263 264 264 264 265 265 265 265 266 267 269 269 268 266 265 265 265 265 265 266 265 263 264 268 268 268 267 267 266 266 266 264 263 266 267 262 259 259 261 265 265 264 264 265 265 264 262 260 258 255 251
233 233 234 234 234 235 236 237 236 237 237 239 241 242 243 245 246 247 248 250 251 249 247 246 248 251 252 253 254 255 257 257 258 259 260 261 261 262 263 263 263 264 264 264 264 264 266 267 267 265 264 263 262 263 264 264 265 265 265 267 268 266 266 267 268 268 267 268 267 265 267 269 265 262 262 262 263 264 265 266 265 265 263 260 258 255 252 250
234 234 235 235 235 236 237 237 237 237 237 238 240 241 242 243 244 245 246 248 250 250 249 248 247 250 252 253 254 254 257 259 258 258 258 259 259 260 261 262 262 262 262 263 263 264 264 264 264 263 263 262 262 262 263 263 263 265 267 268 267 266 266 267 269 270 270 269 268 267 270 271 269 267 264 263 264 265 267 267 265 263 261 258 256 253 251 250
234 235 236 236 237 237 237 238 238 238 237 238 238 240 241 242 243 244 244 247 250 252 253 251 248 248 250 252 253 254 256 258 259 258 257 257 258 259 259 261 261 261 260 262 262 264 263 262 262 261 261 262 262 262 262 263 263 266 268 267 267 267 268 270 270 271 272 269 268 271 273 274 274 271 266 264 265 266 265 266 265 263 260 257 254 252 250 250
235 235 236 237 237 238 238 239 240 240 239 239 239 240 240 241 242 242 243 247 251 253 255 254 251 249 249 251 252 254 255 257 258 258 257 256 257 258 259 259 260 260 259 260 261 263 264 263 261 260 261 262 263 262 262 262 263 266 267 267 269 270 270 271 271 271 271 270 271 275 278 277 274 271 268 266 266 266 264 264 264 262 259 256 253 251 250 251
238 237 237 237 237 238 238 239 240 241 240 239 239 238 239 240 240 239 242 248 252 255 256 256 254 252 250 250 251 252 253 254 255 256 257 257 256 257 257 258 259 261 260 259 260 262 263 262 261 260 261 261 261 261 261 262 264 266 268 269 271 271 271 270 270 270 271 273 276 278 278 276 273 272 273 271 267 266 266 264 262 258 256 254 253 252 252 252
240 239 239 239 238 238 238 238 239 240 240 239 237 237 238 237 237 240 245 249 250 253 256 256 256 255 252 251 250 250 251 252 252 254 256 257 256 256 257 257 257 259 260 260 260 260 261 260 261 261 260 261 261 262 262 263 264 265 267 268 269 270 271 271 271 273 275 277 279 280 278 274 272 272 275 275 269 264 264 263 260 256 254 252 252 253 253 254
239 240 240 240 239 238 238 237 237 239 240 239 238 237 236 235 238 244 249 250 250 252 256 258 258 257 255 253 252 251 251 251 251 252 254 255 256 256 256 256 257 257 260 262 261 261 261 261 262 263 263 263 263 263 263 263 262 264 265 266 267 269 271 274 276 279 280 279 279 279 277 274 272 272 274 276 273 266 259 258 257 254 253 253 253 253 254 255
238 239 239 240 239 238 238 237 237 239 240 240 239 238 236 237 243 249 250 251 252 254 256 258 259 258 258 256 254 252 251 251 252 252 253 253 254 256 256 257 259 259 260 262 261 261 263 263 262 262 263 262 262 262 262 262 262 263 265 266 267 269 273 278 280 281 280 279 278 276 275 274 275 275 274 273 272 268 261 255 252 252 252 253 253 253 254 256
238 240 240 240 240 240 239 239 239 240 240 241 241 240 239 241 247 249 249 250 251 252 254 255 257 258 258 258 257 255 253 253 252 252 252 252 253 255 255 256 257 257 258 261 263 263 263 263 262 261 260 260 260 261 262 263 264 264 264 266 268 272 277 279 278 279 279 278 276 275 275 276 278 278 276 273 271 269 265 258 251 250 250 251 252 252 254 257
238 240 241 239 239 240 241 240 241 242 242 240 240 241 242 245 247 248 249 250 250 251 252 254 256 258 259 261 261 259 256 254 253 252 252 252 253 253 254 255 255 257 258 260 263 263 263 263 262 260 259 259 259 261 262 263 264 264 265 267 271 275 276 276 276 276 276 275 276 276 277 279 279 278 276 275 272 268 264 261 256 252 251 251 251 253 254 257
237 240 243 241 239 240 241 242 243 245 246 243 240 242 247 249 248 248 249 250 250 250 251 253 256 258 259 261 262 261 258 255 253 253 252 251 252 253 254 254 254 256 258 260 261 261 261 262 261 260 259 260 261 261 262 262 264 266 268 270 273 274 273 274 275 275 274 275 277 278 279 278 276 274 273 272 271 266 261 260 258 257 255 253 253 253 254 257
239 241 244 245 245 246 246 246 247 248 249 246 244 245 249 249 248 248 248 248 248 249 250 252 254 256 258 260 261 260 259 255 253 252 250 249 250 252 253 253 253 254 257 259 259 259 259 261 262 261 261 261 262 262 262 263 265 268 270 271 272 273 273 273 273 274 275 275 276 277 276 275 273 272 272 270 268 265 262 260 261 261 261 259 257 257 258 260
241 242 243 244 246 248 248 248 250 252 251 248 247 247 247 247 248 247 247 247 248 249 249 250 252 255 257 258 260 260 259 258 254 251 250 249 250 251 251 251 252 254 256 258 260 260 259 260 261 262 262 263 263 262 263 266 268 269 269 270 270 270 272 272 271 271 272 272 274 274 274 274 273 271 272 271 268 266 265 265 265 265 265 264 263 263 264 266
238 239 241 241 243 244 245 246 247 247 250 251 251 247 245 246 248 248 248 249 250 250 250 250 251 253 256 258 259 259 259 258 256 253 250 249 249 250 250 251 252 255 257 260 261 262 261 261 263 265 266 265 263 264 266 267 266 266 267 268 269 270 271 269 268 267 267 269 272 273 273 275 274 273 274 274 271 269 270 270 269 268 267 267 267 267 267 268
227 231 235 237 240 241 240 241 239 237 243 251 252 248 245 245 245 246 247 248 250 250 251 251 251 253 255 257 258 258 258 257 257 255 252 250 250 251 251 252 255 257 260 262 263 263 263 263 265 267 267 266 266 266 266 265 265 266 267 268 267 267 267 267 268 269 268 269 271 272 273 274 274 275 277 276 274 273 272 270 270 270 270 270 270 269 269 270
224 228 230 231 235 237 236 237 237 233 236 246 252 248 245 244 244 244 244 245 246 248 249 251 252 253 255 255 256 257 257 256 256 256 255 253 252 252 252 254 257 260 261 261 263 263 262 262 264 268 270 271 271 269 268 267 267 267 265 265 266 267 268 270 272 273 271 269 268 269 270 270 271 275 278 278 278 276 274 273 273 274 275 274 273 271 270 272
232 232 230 230 231 232 233 235 238 236 236 243 250 248 245 244 244 245 244 244 246 248 249 251 252 253 255 255 254 254 254 254 255 256 257 256 255 254 255 257 259 261 261 261 263 263 263 263 266 269 272 272 270 269 267 266 266 266 266 268 269 270 272 272 270 269 268 266 266 268 268 268 270 273 276 276 276 277 277 277 277 277 277 276 274 273 273 275
238 235 233 234 234 233 232 234 238 241 241 244 247 247 245 244 244 245 245 246 246 248 250 251 253 253 254 255 253 252 252 253 254 256 256 257 257 257 257 258 259 260 261 262 264 264 263 262 263 266 269 270 267 265 266 267 269 271 272 271 270 270 271 269 267 266 266 266 267 267 266 267 270 272 273 274 276 279 280 280 280 280 279 277 277 277 278 279
238 238 234 233 235 236 236 236 238 243 244 242 243 247 248 246 245 247 248 248 248 249 250 252 253 254 253 254 254 253 252 252 252 253 254 255 256 257 257 258 259 260 261 262 262 262 261 261 262 266 271 271 267 265 267 269 271 270 267 265 265 265 266 267 265 263 263 263 265 266 266 269 272 273 275 277 278 280 282 282 282 282 281 280 280 281 281 281
235 237 233 229 233 237 238 237 239 242 242 239 240 245 248 248 248 248 249 249 249 249 250 251 251 251 251 250 251 251 250 250 250 250 252 254 255 256 258 258 259 260 261 262 263 262 261 261 265 270 273 272 269 268 268 267 264 261 260 262 263 263 264 263 259 258 261 263 264 266 269 272 274 276 278 279 280 281 282 282 282 282 282 282 282 283 282 281
232 235 234 229 230 236 237 236 238 240 241 241 241 242 244 247 248 249 249 249 249 249 249 249 248 248 248 249 250 250 249 249 250 250 252 255 257 257 258 258 258 259 261 263 263 262 262 265 270 273 273 271 268 266 264 262 259 258 259 260 261 261 262 261 260 261 263 264 265 268 272 274 276 278 279 279 279 279 279 280 282 282 282 283 283 282 281 280
231 234 234 230 229 233 237 237 238 238 239 240 240 239 239 241 244 247 249 250 249 249 249 249 248 247 248 249 250 250 250 250 251 251 252 255 257 258 258 259 260 262 263 263 263 264 267 270 273 272 269 266 263 261 259 258 257 258 259 259 259 260 261 262 264 265 265 264 267 271 273 273 275 276 276 276 276 276 278 281 283 283 283 283 282 281 280 280
231 232 234 233 231 232 235 238 239 239 238 238 237 235 236 239 242 247 249 248 248 248 250 251 250 249 249 250 251 252 252 253 254 255 256 257 258 259 261 262 263 263 263 263 264 267 268 269 269 267 264 262 260 259 257 256 257 259 259 259 259 260 261 262 264 265 264 265 268 270 270 272 274 275 275 275 276 278 280 281 281 281 281 280 279 279 279 279
232 232 234 235 235 234 234 237 240 242 242 241 239 236 238 243 247 249 249 248 248 249 250 253 254 253 252 252 253 253 253 255 257 258 259 259 259 261 262 262 262 261 261 263 266 268 267 266 264 261 260 259 258 258 258 258 260 261 260 258 257 257 260 261 264 265 265 267 269 269 270 271 272 273 274 276 278 279 279 278 278 278 278 277 277 277 277 278
232 232 233 235 236 236 234 234 238 242 244 244 244 242 243 247 251 252 251 250 249 249 251 253 254 255 253 252 252 252 253 255 256 258 258 257 258 258 258 258 258 258 260 263 266 266 265 264 262 259 258 258 257 257 259 260 263 261 258 257 258 259 262 264 267 268 267 269 269 268 269 271 272 273 274 275 275 275 275 276 276 277 276 276 275 274 275 277
232 232 232 234 236 236 235 233 233 238 242 245 248 248 247 249 251 251 250 249 248 248 250 252 252 252 252 251 252 253 254 254 253 254 254 254 255 256 256 256 256 257 259 262 264 263 262 261 260 257 258 258 256 258 261 262 262 260 259 260 262 263 264 266 268 269 269 270 269 267 268 271 271 270 270 270 270 272 273 275 276 275 275 274 274 274 275 277
Height
5832 5834 5836 5837 5839 5840 5841 5843 5844 5845 5847 5848 5849 5850 5852 5853 5854 5855 5856 5857 5857 5858 5859 5860 5860 5861 5862 5863 5863 5864 5865 5866 5866 5867 5867 5868 5868 5869 5869 5870 5870 5871 5871 5871 5872 5872 5873 5873 5873 5873 5874 5874 5874 5874 5874 5875 5874 5874 5874 5873 5873 5873 5873 5873 5872 5872 5871 5871 5871 5871 5871 5872 5872 5872 5871 5871 5871 5871 5870 5869 5869 5869 5868 5868 5868 5868 5868 5868
5830 5832 5834 5835 5837 5838 5840 5841 5842 5844 5845 5846 5848 5849 5850 5852 5853 5854 5855 5856 5856 5857 5858 5859 5860 5860 5861 5862 5863 5864 5864 5865 5866 5866 5867 5867 5868 5868 5868 5869 5869 5870 5870 5871 5871 5871 5872 5872 5872 5872 5873 5873 5873 5873 5873 5873 5873 5873 5873 5872 5872 5872 5872 5872 5871 5871 5870 5870 5870 5870 5870 5870 5871 5871 5870 5870 5870 5870 5870 5869 5868 5868 5867 5867 5867 5867 5867 5867
5828 5830 5832 5833 5835 5837 5838 5839 5841 5842 5843 5845 5846 5847 5849 5850 5851 5852 5853 5854 5855 5856 5857 5858 5859 5860 5860 5861 5862 5863 5864 5864 5865 5865 5866 5866 5867 5867 5868 5868 5868 5869 5869 5870 5870 5870 5871 5871 5871 5871 5871 5872 5872 5872 5872 5872 5872 5871 5871 5871 5870 5870 5870 5870 5870 5869 5869 5869 5869 5869 5869 5869 5869 5869 5869 5869 5869 5869 5869 5868 5868 5867 5866 5865 5865 5865 5865 5865
5826 5828 5829 5831 5833 5834 5836 5838 5839 5840 5842 5843 5844 5845 5847 5848 5849 5851 5852 5853 5854 5855 5856 5857 5858 5859 5859 5860 5861 5862 5862 5863 5864 5864 5865 5865 5866 5866 5866 5867 5867 5868 5868 5868 5869 5869 5869 5870 5870 5870 5870 5870 5870 5871 5871 5870 5870 5870 5870 5869 5869 5868 5868 5868 5868 5868 5868 5868 5868 5868 5867 5867 5868 5868 5867 5867 5867 5867 5867 5867 5867 5866 5865 5864 5864 5864 5863 5863
5823 5825 5827 5829 5830 5832 5834 5835 5837 5838 5840 5841 5843 5844 5845 5846 5847 5849 5850 5851 5852 5853 5854 5855 5856 5857 5858 5859 5860 5860 5861 5862 5862 5863 5863 5864 5864 5865 5865 5865 5866 5866 5867 5867 5867 5868 5868 5868 5868 5869 5869 5869 5869 5869 5869 5869 5868 5868 5868 5868 5867 5867 5867 5866 5866 5867 5867 5867 5867 5867 5866 5866 5866 5866 5866 5866 5866 5866 5866 5865 5865 5865 5864 5864 5863 5863 5862 5862
5820 5822 5824 5826 5828 5829 5831 5833 5834 5836 5838 5839 5840 5842 5843 5844 5845 5847 5848 5849 5850 5851 5853 5854 5855 5856 5856 5857 5858 5859 5859 5860 5861 5861 5862 5862 5863 5863 5863 5864 5864 5864 5865 5865 5866 5866 5867 5867 5867 5867 5867 5867 5867 5867 5867 5867 5867 5866 5866 5866 5866 5865 5865 5865 5865 5865 5865 5866 5866 5866 5865 5865 5865 5865 5864 5864 5864 5864 5864 5864 5864 5863 5863 5863 5862 5862 5861 5861
5818 5820 5821 5823 5825 5827 5828 5830 5832 5834 5835 5837 5838 5840 5841 5842 5843 5844 5846 5847 5848 5849 5851 5852 5853 5854 5855 5855 5856 5857 5858 5858 5859 5859 5860 5861 5861 5861 5862 5862 5862 5863 5863 5864 5864 5864 5865 5865 5865 5866 5866 5866 5866 5866 5865 5865 5865 5865 5864 5864 5864 5864 5864 5863 5863 5863 5863 5864 5864 5864 5864 5864 5864 5863 5863 5862 5862 5862 5862 5862 5862 5862 5862 5862 5861 5861 5860 5860
5816 5818 5819 5821 5822 5824 5826 5827 5829 5831 5833 5834 5836 5837 5838 5840 5841 5842 5843 5844 5846 5847 5848 5849 5851 5852 5853 5853 5854 5855 5856 5856 5857 5858 5858 5859 5859 5859 5860 5860 5861 5861 5861 5862 5862 5863 5863 5863 5864 5864 5864 5864 5864 5864 5863 5863 5863 5863 5862 5862 5862 5862 5862 5862 5862 5861 5861 5862 5862 5862 5862 5862 5862 5862 5861 5861 5860 5860 5860 5860 5860 5860 5860 5860 5860 5859 5859 5859
5813 5815 5817 5818 5820 5821 5823 5824 5826 5828 5830 5831 5833 5834 5836 5837 5839 5840 5841 5842 5843 5845 5846 5847 5848 5849 5850 5851 5852 5853 5854 5854 5855 5856 5856 5857 5857 5857 5858 5858 5859 5859 5859 5860 5860 5861 5861 5862 5862 5862 5862 5862 5862 5862 5861 5861 5861 5861 5860 5860 5860 5860 5860 5860 5860 5859 5859 5859 5860 5860 5860 5860 5860 5859 5859 5859 5858 5858 5858 5858 5858 5858 5858 5858 5858 5858 5858 5858
5810 5812 5814 5815 5817 5819 5820 5822 5823 5825 5827 5829 5830 5832 5833 5835 5836 5837 5838 5840 5841 5842 5843 5844 5846 5847 5848 5849 5850 5850 5851 5852 5853 5853 5854 5855 5855 5855 5856 5856 5857 5857 5857 5858 5858 5859 5859 5860 5860 5860 5860 5860 5860 5860 5859 5859 5859 5859 5858 5858 5858 5858 5857 5857 5857 5857 5857 5857 5858 5858 5858 5858 5857 5857 5858 5857 5856 5857 5856 5856 5856 5856 5856 5856 5856 5856 5856 5855
5807 5808 5810 5812 5814 5816 5817 5819 5821 5822 5824 5826 5827 5829 5830 5832 5833 5835 5836 5837 5838 5839 5841 5842 5843 5844 5845 5846 5847 5848 5849 5850 5851 5851 5852 5852 5853 5853 5854 5854 5854 5855 5855 5856 5856 5857 5857 5858 5858 5858 5858 5858 5858 5857 5857 5857 5857 5856 5856 5856 5855 5855 5855 5854 5854 5854 5854 5855 5855 5855 5855 5855 5855 5855 5855 5855 5855 5855 5855 5855 5855 5855 5854 5854 5854 5853 5853 5853
5803 5805 5807 5809 5811 5812 5814 5816 5818 5819 5821 5823 5824 5826 5827 5829 5830 5832 5833 5834 5835 5837 5838 5839 5840 5841 5842 5843 5844 5845 5846 5847 5848 5849 5849 5850 5850 5851 5851 5852 5852 5852 5853 5854 5854 5855 5855 5856 5856 5856 5856 5856 5856 5855 5855 5854 5854 5854 5853 5853 5853 5853 5852 5852 5851 5851 5852 5853 5853 5852 5852 5853 5853 5853 5853 5853 5853 5853 5853 5853 5854 5853 5853 5852 5852 5851 5851 5851
5799 5801 5803 5805 5807 5809 5811 5812 5814 5816 5818 5820 5821 5823 5824 5826 5827 5828 5830 5831 5833 5834 5835 5836 5837 5839 5840 5841 5841 5842 5843 5845 5846 5846 5847 5847 5848 5848 5849 5849 5849 5850 5851 5851 5852 5852 5853 5853 5853 5854 5854 5854 5853 5853 5852 5852 5852 5851 5851 5850 5850 5850 5849 5849 5849 5849 5849 5850 5850 5849 5849 5850 5851 5851 5851 5850 5851 5851 5852 5852 5852 5852 5851 5851 5850 5850 5850 5849
5795 5797 5799 5801 5803 5805 5807 5809 5811 5812 5814 5816 5818 5819 5821 5822 5824 5825 5827 5828 5829 5831 5832 5833 5835 5836 5837 5838 5839 5839 5840 5842 5843 5843 5844 5844 5845 5845 5846 5846 5847 5847 5848 5849 5849 5850 5850 5851 5851 5851 5851 5851 5851 5850 5849 5850 5849 5848 5848 5848 5848 5847 5846 5847 5847 5846 5847 5847 5846 5846 5846 5847 5848 5849 5848 5848 5849 5849 5849 5850 5850 5850 5849 5849 5848 5848 5848 5848
5791 5794 5796 5798 5799 5801 5803 5805 5807 5809 5810 5812 5814 5816 5817 5819 5820 5822 5823 5825 5826 5827 5829 5830 5831 5832 5834 5835 5836 5836 5837 5838 5839 5840 5841 5842 5842 5843 5843 5843 5844 5845 5845 5846 5846 5847 5847 5848 5848 5848 5849 5848 5848 5847 5847 5847 5847 5846 5846 5845 5845 5844 5843 5845 5845 5844 5844 5844 5843 5843 5843 5844 5845 5846 5846 5845 5846 5846 5847 5847 5847 5847 5847 5846 5846 5846 5846 5846
5787 5789 5792 5794 5796 5797 5799 5801 5803 5805 5807 5808 5810 5812 5814 5815 5817 5818 5819 5821 5822 5824 5825 5827 5828 5829 5830 5832 5833 5834 5834 5835 5836 5837 5838 5839 5839 5840 5840 5840 5841 5842 5842 5843 5843 5844 5844 5845 5845 5845 5846 5846 5845 5844 5844 5844 5844 5843 5842 5842 5842 5843 5841 5842 5842 5841 5841 5841 5841 5840 5840 5841 5842 5843 5843 5843 5843 5843 5843 5844 5844 5844 5844 5843 5843 5843 5843 5844
5782 5785 5787 5789 5791 5793 5795 5797 5799 5801 5803 5804 5806 5808 5809 5811 5813 5814 5815 5817 5818 5820 5822 5823 5824 5826 5827 5829 5830 5831 5831 5831 5832 5833 5834 5835 5836 5836 5837 5837 5838 5838 5839 5840 5840 5841 5841 5841 5842 5842 5843 5843 5842 5841 5841 5841 5840 5839 5839 5839 5840 5840 5840 5839 5839 5839 5838 5837 5838 5837 5837 5838 5838 5839 5840 5840 5840 5840 5840 5840 5841 5840 5840 5840 5840 5840 5841 5841
5778 5780 5782 5785 5787 5789 5791 5793 5795 5797 5798 5800 5802 5803 5805 5807 5808 5810 5811 5813 5814 5816 5817 5819 5821 5822 5823 5825 5827 5827 5827 5828 5829 5830 5831 5832 5832 5833 5833 5834 5835 5835 5836 5836 5837 5837 5837 5838 5838 5838 5840 5840 5839 5838 5837 5837 5836 5835 5836 5838 5837 5837 5837 5836 5835 5836 5836 5834 5834 5834 5835 5835 5835 5835 5837 5836 5836 5837 5837 5837 5837 5837 5837 5837 5837 5837 5838 5838
5773 5775 5777 5780 5782 5784 5787 5789 5791 5792 5794 5796 5798 5799 5801 5802 5804 5805 5807 5808 5810 5812 5813 5815 5817 5817 5819 5821 5823 5824 5824 5824 5825 5826 5827 5828 5829 5829 5830 5831 5831 5832 5832 5833 5833 5834 5834 5834 5834 5836 5838 5837 5835 5834 5833 5833 5833 5834 5834 5834 5834 5834 5834 5833 5832 5833 5832 5830 5831 5831 5831 5832 5832 5832 5833 5833 5833 5833 5834 5833 5833 5833 5833 5834 5834 5834 5835 5835
5767 5770 5772 5774 5777 5779 5782 5784 5786 5788 5790 5792 5794 5795 5796 5798 5799 5800 5802 5804 5806 5807 5808 5810 5812 5813 5814 5817 5819 5820 5820 5821 5821 5822 5823 5824 5825 5825 5826 5827 5827 5828 5829 5829 5829 5830 5829 5829 5831 5834 5834 5832 5831 5831 5829 5830 5830 5831 5830 5830 5831 5831 5830 5830 5829 5830 5828 5826 5828 5828 5828 5829 5830 5829 5829 5830 5830 5830 5830 5830 5830 5830 5830 5830 5830 5831 5831 5832
5762 5764 5767 5769 5772 5774 5776 5779 5781 5783 5785 5788 5789 5791 5792 5793 5794 5795 5798 5800 5801 5803 5804 5805 5807 5809 5810 5812 5814 5815 5816 5816 5817 5818 5819 5820 5821 5821 5822 5823 5824 5824 5825 5825 5825 5826 5825 5825 5829 5831 5829 5827 5827 5827 5826 5826 5827 5827 5827 5827 5827 5827 5827 5826 5825 5826 5824 5822 5825 5825 5824 5827 5827 5826 5825 5826 5827 5826 5826 5826 5826 5826 5826 5826 5827 5827 5828 5828
5756 5759 5762 5764 5766 5768 5771 5774 5776 5778 5781 5783 5785 5786 5787 5788 5789 5791 5793 5794 5795 5798 5799 5801 5803 5804 5806 5808 5809 5811 5811 5812 5813 5814 5815 5816 5816 5817 5818 5819 5819 5820 5821 5821 5821 5822 5821 5822 5826 5826 5824 5823 5823 5823 5823 5823 5823 5823 5823 5823 5823 5824 5824 5822 5821 5821 5820 5819 5820 5821 5820 5823 5824 5823 5822 5822 5823 5823 5823 5823 5823 5822 5822 5822 5823 5823 5824 5825
5751 5754 5756 5758 5761 5763 5765 5768 5770 5773 5776 5778 5780 5780 5781 5783 5785 5786 5787 5787 5790 5793 5794 5796 5798 5799 5801 5803 5804 5806 5806 5807 5808 5809 5810 5811 5811 5812 5814 5815 5815 5815 5816 5817 5817 5817 5816 5818 5821 5820 5820 5820 5819 5819 5819 5818 5819 5819 5819 5819 5819 5820 5820 5818 5816 5817 5817 5816 5816 5816 5816 5819 5821 5820 5819 5818 5819 5820 5819 5819 5819 5819 5819 5819 5819 5820 5820 5821
5745 5748 5750 5753 5755 5757 5760 5762 5765 5769 5771 5773 5774 5775 5777 5778 5779 5780 5781 5781 5783 5787 5790 5791 5792 5794 5796 5798 5800 5800 5801 5802 5803 5805 5807 5806 5807 5808 5809 5811 5811 5810 5812 5814 5813 5812 5812 5812 5815 5816 5816 5815 5815 5815 5815 5814 5814 5815 5815 5815 5816 5816 5815 5814 5812 5812 5814 5812 5812 5812 5810 5814 5818 5816 5815 5816 5815 5816 5816 5815 5815 5815 5815 5815 5815 5815 5816 5816
5739 5742 5744 5747 5749 5751 5753 5756 5761 5764 5765 5767 5769 5770 5771 5772 5774 5774 5775 5775 5775 5781 5785 5786 5787 5788 5790 5793 5794 5794 5796 5797 5799 5801 5802 5801 5802 5804 5805 5806 5806 5806 5808 5809 5808 5808 5807 5807 5811 5812 5811 5811 5810 5810 5811 5810 5810 5810 5811 5811 5812 5812 5810 5810 5809 5808 5809 5807 5809 5809 5806 5807 5812 5812 5812 5814 5812 5811 5812 5811 5811 5811 5811 5811 5811 5811 5811 5812
5732 5735 5738 5741 5743 5745 5747 5751 5756 5757 5759 5762 5762 5764 5765 5767 5768 5769 5770 5768 5766 5772 5779 5782 5782 5782 5785 5787 5789 5790 5790 5792 5795 5797 5797 5797 5799 5800 5800 5801 5802 5802 5803 5804 5803 5803 5802 5803 5806 5807 5806 5806 5805 5805 5806 5807 5806 5805 5805 5808 5809 5807 5806 5805 5805 5805 5804 5803 5803 5805 5803 5801 5805 5809 5810 5810 5809 5807 5808 5807 5807 5807 5807 5807 5807 5807 5807 5808
5725 5728 5731 5734 5737 5739 5742 5746 5749 5751 5754 5755 5756 5757 5760 5761 5761 5763 5765 5762 5758 5763 5772 5777 5778 5776 5779 5782 5785 5785 5783 5785 5791 5792 5792 5793 5795 5795 5795 5796 5797 5798 5798 5799 5798 5797 5799 5800 5801 5801 5800 5800 5800 5801 5803 5804 5801 5799 5801 5804 5804 5803 5802 5801 5801 5800 5800 5798 5797 5800 5801 5796 5797 5805 5808 5806 5804 5803 5804 5804 5803 5802 5802 5802 5803 5803 5803 5804
5719 5722 5724 5727 5731 5733 5737 5740 5742 5745 5747 5748 5749 5750 5752 5753 5755 5757 5758 5755 5753 5757 5763 5770 5773 5773 5774 5777 5779 5779 5778 5781 5786 5788 5788 5789 5789 5790 5790 5790 5792 5793 5793 5793 5792 5793 5795 5796 5796 5796 5796 5795 5797 5798 5799 5799 5796 5795 5797 5799 5799 5798 5798 5798 5797 5796 5795 5793 5790 5795 5799 5793 5791 5799 5804 5801 5800 5800 5800 5799 5798 5798 5798 5799 5799 5799 5800 5800
5712 5715 5718 5721 5724 5727 5730 5733 5737 5739 5739 5741 5742 5743 5745 5746 5748 5751 5750 5747 5750 5753 5755 5761 5766 5769 5770 5771 5773 5775 5775 5777 5780 5782 5784 5784 5784 5785 5785 5786 5787 5788 5788 5788 5788 5788 5790 5792 5792 5792 5791 5791 5793 5794 5794 5794 5792 5792 5793 5794 5794 5794 5794 5793 5792 5791 5790 5786 5785 5791 5795 5792 5787 5790 5796 5797 5797 5797 5796 5794 5794 5795 5794 5795 5795 5795 5796 5796
5705 5708 5711 5713 5717 5721 5725 5728 5731 5732 5732 5734 5735 5736 5738 5739 5742 5744 5741 5742 5747 5749 5748 5751 5758 5763 5765 5766 5768 5770 5771 5773 5774 5776 5777 5778 5779 5780 5781 5782 5781 5781 5783 5783 5783 5784 5785 5787 5788 5787 5787 5788 5789 5790 5790 5789 5789 5789 5789 5789 5789 5789 5789 5788 5787 5786 5783 5779 5782 5788 5791 5789 5784 5781 5787 5793 5794 5791 5790 5791 5791 5791 5791 5791 5791 5791 5792 5792
5698 5701 5703 5706 5711 5715 5718 5722 5725 5725 5725 5727 5727 5728 5730 5732 5734 5733 5733 5739 5745 5742 5740 5743 5750 5755 5759 5761 5763 5764 5766 5768 5770 5771 5771 5773 5775 5774 5775 5776 5776 5777 5778 5778 5779 5780 5781 5782 5782 5783 5784 5784 5784 5785 5785 5785 5785 5785 5784 5784 5785 5783 5783 5782 5781 5780 5778 5776 5779 5783 5785 5783 5779 5777 5781 5787 5789 5786 5785 5786 5787 5786 5787 5787 5787 5787 5788 5789
5691 5694 5696 5700 5704 5707 5711 5715 5717 5716 5716 5718 5718 5719 5722 5723 5721 5723 5730 5739 5739 5734 5732 5736 5742 5746 5750 5754 5757 5758 5760 5762 5764 5766 5766 5768 5769 5770 5771 5771 5772 5772 5771 5773 5775 5776 5776 5777 5777 5778 5778 5779 5780 5780 5780 5781 5781 5781 5780 5779 5779 5778 5776 5775 5775 5775 5775 5774 5775 5776 5777 5775 5773 5775 5776 5779 5783 5783 5781 5781 5782 5782 5782 5783 5783 5783 5784 5785
5684 5686 5689 5693 5696 5701 5704 5707 5709 5707 5707 5709 5707 5709 5712 5709 5709 5720 5731 5733 5729 5727 5729 5731 5734 5738 5742 5747 5751 5753 5755 5757 5759 5761 5762 5763 5763 5764 5766 5766 5767 5768 5767 5768 5770 5770 5770 5772 5772 5773 5774 5776 5775 5775 5776 5776 5776 5775 5775 5774 5774 5773 5771 5770 5771 5771 5770 5770 5770 5770 5769 5767 5767 5772 5774 5773 5775 5777 5777 5777 5777 5777 5777 5778 5779 5779 5780 5780
5677 5679 5682 5686 5689 5692 5696 5698 5700 5700 5699 5699 5697 5699 5699 5697 5707 5722 5726 5723 5722 5723 5727 5726 5727 5730 5734 5738 5744 5748 5750 5752 5755 5756 5757 5758 5758 5759 5761 5762 5763 5765 5764 5763 5764 5765 5765 5766 5768 5769 5770 5771 5770 5770 5770 5769 5770 5770 5770 5769 5768 5769 5768 5767 5767 5765 5764 5764 5764 5763 5762 5761 5763 5767 5769 5769 5769 5770 5772 5773 5773 5773 5773 5773 5774 5775 5775 5776
5671 5672 5675 5677 5680 5685 5689 5690 5692 5692 5690 5688 5688 5687 5686 5693 5709 5717 5715 5715 5716 5717 5721 5721 5720 5723 5726 5730 5736 5741 5745 5747 5749 5751 5751 5752 5753 5754 5756 5757 5758 5759 5759 5758 5758 5760 5760 5760 5763 5765 5765 5765 5765 5765 5764 5763 5764 5765 5765 5763 5763 5766 5767 5764 5762 5760 5758 5757 5756 5756 5756 5758 5760 5761 5763 5764 5765 5766 5766 5767 5768 5768 5769 5769 5770 5770 5771 5771
5663 5664 5666 5668 5674 5680 5681 5681 5684 5683 5680 5678 5675 5672 5680 5696 5708 5708 5706 5709 5711 5712 5716 5716 5716 5717 5719 5723 5728 5734 5738 5741 5743 5744 5746 5747 5747 5749 5750 5752 5753 5754 5755 5755 5754 5755 5754 5754 5756 5759 5759 5759 5760 5760 5759 5758 5758 5758 5759 5759 5760 5763 5762 5758 5756 5756 5754 5750 5749 5750 5752 5755 5756 5756 5757 5758 5760 5762 5761 5761 5763 5763 5764 5765 5765 5766 5766 5767
5654 5657 5657 5662 5670 5673 5672 5674 5675 5674 5672 5667 5661 5665 5682 5696 5701 5701 5701 5704 5705 5708 5710 5711 5711 5712 5714 5717 5721 5726 5730 5733 5736 5738 5739 5740 5741 5743 5745 5746 5749 5750 5750 5751 5749 5749 5749 5747 5749 5752 5753 5754 5755 5755 5753 5753 5753 5753 5754 5756 5757 5757 5755 5753 5751 5749 5748 5745 5744 5746 5747 5750 5750 5750 5752 5754 5755 5756 5756 5755 5756 5757 5759 5760 5761 5761 5762 5762
5650 5651 5650 5657 5664 5665 5666 5667 5664 5663 5663 5655 5651 5664 5681 5689 5693 5695 5695 5695 5698 5701 5703 5705 5707 5707 5708 5710 5714 5718 5722 5725 5729 5731 5732 5734 5735 5738 5740 5741 5744 5746 5746 5745 5743 5743 5744 5742 5743 5745 5747 5748 5749 5748 5747 5748 5749 5750 5750 5751 5751 5749 5748 5748 5746 5744 5743 5740 5740 5741 5740 5742 5744 5744 5747 5750 5750 5750 5750 5750 5751 5752 5752 5753 5755 5756 5756 5756
5643 5642 5644 5653 5657 5657 5659 5659 5654 5652 5649 5642 5646 5663 5677 5681 5685 5687 5685 5687 5691 5693 5695 5700 5703 5701 5701 5705 5707 5711 5714 5717 5721 5724 5725 5728 5730 5733 5735 5736 5738 5739 5740 5739 5738 5738 5740 5738 5736 5738 5741 5742 5742 5741 5742 5745 5746 5746 5744 5744 5744 5743 5742 5742 5740 5740 5739 5735 5735 5736 5734 5735 5738 5739 5742 5745 5745 5744 5744 5746 5746 5746 5747 5748 5749 5749 5749 5749
5633 5632 5639 5648 5649 5649 5654 5653 5646 5639 5634 5636 5646 5662 5671 5674 5676 5678 5679 5682 5684 5686 5689 5694 5697 5696 5697 5700 5701 5703 5708 5709 5712 5716 5718 5721 5724 5726 5729 5730 5732 5734 5733 5733 5733 5733 5733 5733 5732 5732 5734 5735 5734 5736 5739 5740 5739 5739 5738 5737 5738 5738 5737 5735 5733 5734 5735 5732 5732 5731 5728 5729 5731 5733 5737 5739 5739 5739 5740 5741 5741 5741 5742 5742 5742 5742 5742 5743
5625 5623 5631 5641 5640 5642 5647 5641 5634 5630 5627 5633 5646 5657 5662 5664 5666 5669 5673 5676 5677 5679 5684 5686 5689 5690 5692 5694 5694 5696 5700 5702 5704 5707 5711 5714 5717 5719 5723 5725 5726 5727 5727 5727 5728 5728 5727 5727 5726 5725 5726 5727 5728 5731 5733 5732 5731 5732 5733 5731 5731 5733 5732 5729 5727 5729 5730 5729 5729 5726 5723 5724 5725 5726 5730 5733 5733 5735 5736 5735 5735 5735 5736 5736 5736 5736 5736 5736
5617 5615 5624 5632 5631 5633 5635 5628 5625 5625 5623 5630 5644 5649 5650 5653 5657 5661 5664 5668 5670 5672 5676 5678 5681 5684 5685 5686 5688 5689 5692 5695 5696 5699 5703 5707 5710 5713 5716 5718 5719 5720 5720 5721 5722 5722 5720 5719 5719 5719 5719 5721 5722 5723 5725 5725 5724 5725 5724 5724 5726 5727 5728 5726 5724 5725 5725 5724 5725 5721 5716 5717 5720 5721 5723 5725 5727 5729 5729 5729 5729 5729 5730 5730 5729 5729 5729 5730
5609 5612 5619 5623 5622 5625 5624 5618 5619 5618 5619 5630 5639 5636 5637 5644 5649 5652 5655 5659 5663 5667 5668 5670 5674 5677 5678 5679 5680 5681 5684 5688 5690 5692 5697 5700 5703 5706 5709 5710 5711 5712 5712 5714 5715 5716 5713 5712 5713 5714 5713 5714 5714 5715 5716 5716 5716 5715 5718 5722 5722 5722 5724 5722 5720 5719 5718 5717 5719 5717 5711 5711 5715 5717 5718 5718 5720 5721 5722 5722 5723 5723 5723 5723 5722 5722 5723 5724
5601 5607 5612 5613 5615 5616 5612 5609 5612 5614 5618 5629 5629 5624 5630 5637 5639 5642 5647 5652 5656 5659 5659 5663 5667 5670 5671 5672 5672 5675 5678 5681 5683 5687 5690 5692 5695 5698 5700 5701 5703 5704 5705 5707 5710 5710 5707 5706 5707 5707 5706 5706 5706 5707 5708 5710 5711 5712 5715 5718 5716 5716 5717 5715 5715 5714 5711 5711 5713 5709 5705 5707 5710 5711 5712 5713 5714 5715 5715 5715 5716 5716 5715 5715 5714 5715 5717 5717
5595 5598 5602 5605 5606 5605 5602 5604 5610 5612 5616 5622 5619 5619 5626 5629 5632 5637 5641 5643 5647 5649 5652 5657 5661 5662 5664 5665 5667 5670 5672 5674 5677 5680 5681 5684 5686 5688 5691 5693 5695 5697 5698 5700 5702 5702 5699 5699 5699 5699 5699 5699 5699 5701 5704 5707 5708 5707 5708 5709 5709 5710 5709 5708 5710 5708 5703 5704 5705 5701 5701 5705 5706 5705 5706 5708 5709 5709 5709 5708 5708 5708 5707 5707 5707 5708 5709 5709
5586 5587 5593 5598 5597 5595 5596 5601 5604 5605 5609 5612 5613 5616 5619 5621 5626 5631 5632 5634 5638 5642 5647 5651 5652 5652 5654 5659 5661 5663 5664 5667 5669 5671 5673 5676 5678 5681 5683 5686 5689 5690 5691 5692 5694 5693 5691 5690 5691 5692 5692 5693 5696 5698 5698 5699 5699 5699 5701 5702 5702 5703 5703 5702 5701 5698 5697 5699 5697 5696 5699 5700 5700 5700 5702 5703 5703 5703 5703 5701 5701 5701 5700 5700 5701 5702 5701 5701
5576 5577 5584 5591 5590 5587 5589 5594 5594 5597 5603 5606 5607 5611 5614 5615 5620 5622 5622 5627 5632 5635 5638 5640 5640 5642 5647 5653 5655 5655 5657 5659 5660 5665 5669 5670 5671 5674 5676 5678 5681 5682 5684 5685 5685 5684 5683 5682 5685 5686 5684 5687 5692 5692 5690 5690 5690 5693 5694 5695 5695 5696 5696 5694 5690 5692 5696 5693 5689 5693 5696 5694 5694 5696 5696 5696 5696 5696 5696 5695 5695 5695 5695 5694 5695 5695 5693 5692
5567 5569 5577 5583 5582 5580 5583 5587 5588 5593 5599 5599 5599 5605 5608 5609 5613 5613 5616 5624 5626 5626 5627 5627 5631 5638 5644 5647 5647 5646 5650 5651 5653 5659 5664 5664 5664 5665 5668 5671 5674 5676 5678 5677 5676 5677 5675 5675 5678 5678 5676 5680 5685 5684 5683 5683 5683 5685 5686 5687 5688 5688 5687 5685 5684 5689 5691 5684 5684 5691 5690 5688 5689 5691 5690 5690 5689 5689 5690 5690 5689 5688 5688 5689 5689 5687 5685 5684
5559 5562 5568 5571 5572 5575 5579 5582 5584 5586 5591 5592 5591 5596 5600 5603 5607 5610 5614 5617 5616 5617 5619 5619 5626 5635 5638 5639 5638 5637 5641 5644 5647 5653 5659 5659 5657 5658 5662 5665 5667 5670 5670 5669 5669 5669 5667 5668 5672 5670 5667 5673 5677 5676 5677 5677 5676 5677 5677 5678 5681 5681 5680 5678 5678 5683 5682 5677 5681 5684 5681 5682 5683 5683 5685 5685 5683 5684 5685 5684 5683 5682 5682 5682 5680 5679 5678 5676
5550 5555 5560 5561 5563 5569 5573 5576 5578 5578 5582 5583 5584 5589 5594 5597 5603 5607 5608 5608 5608 5611 5613 5614 5622 5630 5631 5630 5629 5628 5635 5641 5644 5649 5653 5651 5649 5653 5656 5657 5660 5662 5661 5660 5660 5660 5659 5661 5664 5662 5658 5663 5669 5670 5670 5669 5668 5670 5670 5672 5674 5673 5671 5669 5671 5676 5674 5673 5678 5677 5674 5677 5676 5674 5679 5679 5677 5678 5677 5676 5676 5675 5674 5673 5671 5671 5670 5668
5542 5547 5552 5553 5555 5561 5565 5570 5572 5572 5574 5574 5576 5584 5589 5591 5598 5602 5601 5600 5603 5605 5606 5610 5618 5622 5621 5620 5619 5622 5632 5639 5639 5642 5644 5640 5641 5646 5647 5648 5651 5651 5650 5652 5652 5652 5652 5653 5656 5655 5649 5654 5664 5664 5661 5661 5660 5658 5661 5666 5668 5665 5662 5662 5667 5670 5668 5669 5672 5669 5667 5671 5670 5668 5672 5672 5670 5670 5668 5668 5668 5667 5666 5665 5663 5662 5661 5662
5534 5539 5543 5545 5547 5551 5556 5561 5565 5565 5567 5568 5571 5577 5581 5585 5593 5593 5589 5590 5595 5598 5600 5605 5611 5612 5609 5610 5613 5620 5630 5632 5631 5633 5633 5631 5633 5636 5635 5637 5641 5641 5642 5644 5644 5644 5645 5645 5648 5648 5642 5647 5656 5654 5652 5653 5647 5644 5653 5662 5662 5658 5655 5656 5660 5662 5663 5663 5662 5660 5662 5665 5662 5661 5663 5662 5661 5661 5660 5660 5660 5659 5658 5656 5654 5654 5654 5655